カタログに戻る

COSMOS 2251 DEB

運用中LEO
NORAD 34062·DEBRIS·🇷🇺 Russia

打ち上げ Jun 16, 1993 から Plesetsk Cosmodrome

Loading…

次のパス (今後24時間)

TLE

最新Source: Space-Track

元期: Sep 14, 2026, 13:24 UTC

1 34062U 93036JZ  26257.55841500  .00008221  00000-0  90236-3 0  9992
2 34062  74.0257 311.8157 0069339 318.9623 110.2223 14.86055831926841

AllMySatでCOSMOS 2251 DEBをリアルタイム追跡

Download on the App Store